Vorticity
5 6 5 4 7 8 8 11 6 6 6 7 9 9 8 8 6 17 10 17 12 16 8 7 6 6 1 0 15 17 15 7 13 5 -4 14 -2 17 0 2 2 -5 -5 9 12
6 4 5 4 9 10 8 5 14 4 7 8 3 5 9 10 12 16 11 11 17 14 9 7 10 5 3 -12 4 30 -9 26 5 -11 5 -0 19 2 2 1 4 1 4 2 16
7 6 4 5 5 11 8 7 10 11 6 8 5 7 11 15 8 19 12 13 14 14 8 9 6 7 9 1 -7 3 -4 38 -18 5 3 19 5 4 19 7 4 -0 -3 2 11
8 9 8 6 6 6 9 7 8 11 7 7 5 5 6 8 10 3 13 11 8 14 9 10 7 4 8 2 4 1 -1 24 34 -6 14 -8 0 5 -0 15 12 9 11 -5 6
7 8 9 9 8 6 7 8 8 11 9 7 7 3 2 11 14 5 8 10 7 15 9 9 8 7 1 13 6 6 -0 -4 14 16 5 19 -6 5 2 7 6 1 3 8 5
5 6 6 8 10 9 6 9 7 9 10 8 7 5 4 -2 15 12 5 10 11 8 13 8 7 8 11 -4 22 12 9 -4 6 -6 3 4 1 43 -3 -11 -2 -4 2 2 5
4 5 5 6 7 9 9 7 8 7 8 10 7 8 6 5 11 14 7 9 9 11 12 5 10 6 2 21 -0 14 8 8 -2 9 -3 5 5 7 10 4 12 13 5 3 5
5 5 5 6 6 8 9 9 7 7 7 7 8 6 9 7 10 14 9 6 8 11 12 8 11 10 -7 11 14 14 10 20 14 -6 -5 1 -4 2 6 9 -1 1 7 9 5
6 6 6 6 6 7 8 8 8 8 8 5 10 8 16 16 8 14 15 3 8 9 13 11 9 9 -9 11 -2 19 -6 7 8 18 6 20 13 19 8 6 7 11 9 2 -2
8 7 7 7 7 7 8 6 8 7 8 10 19 14 16 3 5 10 14 7 7 7 14 13 8 -3 11 -5 6 -0 9 -10 17 8 2 5 2 -4 6 16 12 11 5 13 7
8 9 9 9 8 8 9 8 10 5 15 3 -4 7 6 11 9 6 13 10 4 9 9 14 8 -4 -1 4 -0 2 -5 11 10 10 -1 6 17 8 1 -0 5 12 9 15 15
8 8 9 9 9 10 9 8 8 0 11 9 8 9 12 9 7 6 15 10 9 3 13 10 4 7 10 1 5 4 6 7 11 2 0 7 7 3 2 4 3 6 11 7 8
7 7 8 9 9 11 10 9 9 8 8 21 35 17 15 13 9 2 11 11 11 9 6 10 -1 28 6 -2 5 5 -1 6 -7 -5 1 7 7 10 8 5 6 11 5 5 6
8 8 8 8 12 10 10 11 11 12 37 34 31 28 23 9 13 13 2 10 7 17 13 23 27 -11 38 0 4 1 3 1 3 5 -0 27 16 4 7 7 14 8 7 5 9
10 10 8 9 9 11 11 12 12 12 24 14 11 3 9 13 -1 32 14 7 5 7 5 -7 13 33 4 -6 23 3 16 7 7 2 3 -6 4 19 15 16 8 4 3 13 11
11 12 9 8 6 13 12 12 14 27 6 5 8 7 9 10 1 -2 8 17 4 13 4 5 -4 -1 10 31 10 11 -1 -4 16 14 26 -1 -32 34 12 4 7 7 14 3 12
11 11 8 3 8 15 13 15 25 7 -5 7 13 11 7 5 15 9 9 9 8 11 21 20 12 7 6 1 7 23 22 16 29 20 11 22 48 -36 -21 7 10 47 41 4 8
11 6 2 -6 17 15 14 22 11 -10 -11 -11 12 5 -3 6 8 7 9 4 9 9 -4 3 34 33 25 17 -6 11 4 -49 13 7 13 40 24 -27 14 30 31 9 -21 -11 17
8 8 12 30 20 15 19 15 -13 5 10 0 2 17 27 35 12 4 18 16 14 24 -7 0 19 26 10 -1 24 34 28 11 -15 -8 10 4 23 18 9 8 9 11 11 11 17
17 26 21 16 12 13 17 2 -1 5 -5 -5 12 -3 -4 8 -5 2 16 1 8 17 25 22 30 32 28 24 14 3 -12 31 26 8 11 32 7 -39 -1 18 28 29 22 20 17
15 14 15 -2 4 10 6 6 5 13 21 14 -14 18 -4 -8 -1 15 3 10 9 11 13 7 11 1 9 -8 9 18 21 15 6 -16 -3 5 16 8 39 30 15 8 -1 0 7
10 20 8 21 20 10 5 9 16 6 -10 4 17 -7 15 -7 28 17 13 7 -4 -3 2 4 -10 -19 -18 14 5 8 8 16 -3 -5 -31 -12 17 -4 -1 10 36 27 15 10 4
14 25 25 2 8 0 9 15 7 17 13 4 7 -6 3 7 26 37 19 5 15 21 3 -4 -6 -4 9 41 49 36 22 17 1 39 33 3 3 -25 -18 11 25 5 22 16 6
19 21 19 20 23 11 11 22 20 14 3 1 -5 -1 -4 4 3 -5 -14 -6 -3 3 5 12 8 -8 -29 -32 -29 6 1 3 21 17 -12 -15 -20 -14 -7 7 -13 12 28 10 15
16 5 8 2 11 15 7 -1 4 9 1 -3 3 16 20 26 7 5 22 18 17 21 9 18 5 6 3 0 5 4 8 1 7 -2 7 -15 5 6 9 16 19 -2 -2 4 41
18 19 9 16 11 11 7 1 0 8 4 15 22 21 -1 -1 -3 -5 -12 -2 2 0 5 11 10 10 5 5 6 20 18 11 -2 1 6 12 11 17 14 14 18 23 5 -0 -0
14 14 13 8 9 8 7 11 7 6 39 13 16 -0 2 6 8 8 6 10 6 5 8 10 2 10 15 20 23 60 18 25 16 7 -4 2 5 8 8 8 8 15 8 9 1
Height
3092 3091 3089 3086 3083 3080 3077 3075 3072 3069 3067 3064 3063 3061 3059 3057 3056 3053 3053 3053 3054 3054 3055 3058 3059 3057 3061 3064 3065 3064 3066 3069 3070 3076 3078 3080 3086 3092 3093 3097 3100 3101 3106 3109 3111
3093 3091 3090 3087 3084 3080 3076 3073 3071 3069 3066 3063 3061 3059 3057 3055 3053 3052 3052 3051 3052 3053 3055 3056 3058 3059 3062 3064 3065 3067 3069 3071 3071 3073 3076 3078 3083 3087 3090 3094 3097 3097 3104 3108 3109
3094 3092 3089 3086 3083 3080 3076 3072 3070 3068 3065 3063 3060 3058 3055 3053 3052 3050 3050 3049 3051 3052 3053 3055 3057 3060 3062 3064 3064 3068 3069 3071 3071 3073 3074 3077 3080 3084 3089 3092 3097 3096 3103 3105 3108
3094 3091 3088 3085 3082 3079 3076 3073 3069 3066 3064 3061 3060 3057 3055 3053 3054 3050 3049 3049 3050 3051 3053 3054 3056 3058 3059 3062 3064 3066 3067 3069 3071 3074 3076 3076 3079 3081 3084 3089 3093 3095 3099 3104 3108
3096 3092 3088 3084 3081 3078 3075 3072 3068 3065 3062 3060 3058 3056 3054 3052 3051 3049 3048 3048 3049 3050 3052 3054 3055 3058 3059 3061 3064 3064 3067 3070 3071 3073 3076 3079 3079 3080 3080 3087 3090 3092 3095 3101 3105
3095 3092 3087 3083 3080 3077 3073 3070 3067 3064 3061 3058 3056 3055 3053 3051 3049 3047 3047 3047 3046 3049 3051 3053 3054 3058 3059 3061 3063 3064 3066 3070 3071 3073 3074 3077 3078 3080 3082 3085 3086 3088 3092 3098 3100
3094 3090 3086 3082 3078 3074 3071 3068 3065 3062 3059 3056 3054 3052 3051 3050 3047 3046 3046 3046 3046 3047 3049 3051 3054 3056 3057 3060 3061 3064 3065 3067 3069 3072 3071 3075 3077 3076 3078 3080 3085 3087 3090 3093 3095
3092 3087 3084 3080 3076 3072 3069 3065 3062 3059 3057 3055 3052 3050 3048 3046 3045 3044 3044 3044 3044 3045 3046 3049 3052 3054 3055 3057 3059 3061 3063 3062 3067 3068 3070 3073 3070 3073 3075 3077 3082 3084 3087 3089 3091
3089 3085 3081 3077 3073 3069 3066 3063 3059 3057 3053 3051 3049 3047 3046 3044 3043 3042 3042 3043 3043 3044 3043 3045 3049 3052 3053 3054 3056 3057 3057 3059 3062 3063 3065 3064 3063 3065 3070 3074 3077 3079 3082 3084 3085
3086 3082 3078 3074 3070 3066 3062 3059 3056 3052 3050 3047 3044 3046 3043 3042 3040 3039 3039 3040 3041 3042 3043 3044 3044 3046 3048 3049 3048 3050 3054 3055 3056 3058 3059 3057 3058 3061 3064 3066 3070 3073 3075 3076 3078
3083 3079 3075 3071 3066 3062 3059 3055 3053 3049 3045 3043 3040 3038 3037 3037 3037 3036 3036 3036 3037 3039 3038 3041 3041 3036 3042 3046 3050 3051 3050 3052 3052 3055 3055 3052 3055 3059 3061 3061 3063 3065 3067 3068 3071
3079 3075 3071 3067 3063 3059 3055 3051 3047 3043 3037 3036 3033 3031 3032 3032 3033 3032 3033 3034 3033 3034 3035 3037 3032 3038 3042 3045 3047 3048 3048 3046 3049 3050 3050 3049 3049 3053 3053 3053 3056 3058 3058 3061 3062
3074 3070 3066 3062 3059 3055 3052 3048 3044 3039 3031 3029 3024 3023 3027 3028 3028 3030 3031 3031 3030 3030 3030 3031 3032 3037 3039 3040 3042 3044 3044 3045 3047 3046 3046 3045 3042 3044 3044 3046 3048 3049 3053 3053 3055
3069 3065 3062 3058 3056 3051 3048 3045 3042 3037 3028 3023 3020 3021 3022 3023 3024 3025 3027 3029 3029 3029 3029 3028 3029 3031 3033 3034 3038 3038 3040 3043 3044 3043 3041 3042 3033 3033 3037 3038 3040 3042 3044 3048 3051
3064 3061 3056 3053 3051 3048 3046 3042 3040 3039 3037 3026 3023 3021 3022 3024 3023 3023 3024 3024 3024 3026 3028 3026 3025 3027 3027 3026 3033 3033 3037 3037 3037 3037 3037 3036 3035 3019 3026 3024 3026 3033 3038 3042 3045
3059 3056 3053 3050 3048 3045 3041 3040 3040 3042 3032 3025 3023 3021 3022 3022 3022 3022 3022 3022 3022 3023 3023 3022 3023 3022 3023 3025 3027 3030 3030 3031 3030 3030 3022 3025 3024 3009 3016 3017 3022 3028 3032 3036 3038
3054 3051 3049 3045 3042 3040 3038 3038 3039 3034 3030 3026 3023 3022 3022 3021 3020 3020 3020 3020 3020 3019 3016 3016 3015 3016 3018 3019 3019 3022 3022 3024 3021 3018 3011 3013 3012 3004 3009 3013 3016 3019 3022 3027 3031
3049 3046 3043 3040 3038 3035 3034 3035 3034 3029 3027 3025 3023 3021 3021 3021 3018 3017 3016 3014 3014 3013 3012 3011 3009 3008 3009 3010 3012 3013 3015 3014 3009 3008 3005 3005 2998 2996 3000 3004 3008 3013 3016 3018 3020
3044 3041 3037 3034 3033 3032 3032 3031 3029 3027 3026 3024 3023 3019 3018 3018 3016 3013 3011 3010 3008 3008 3008 3004 3000 3001 3002 3004 3007 3004 3004 3005 3004 3003 3000 2995 2991 2991 2993 2995 2999 3003 3006 3010 3013
3039 3036 3032 3030 3029 3029 3027 3025 3025 3025 3022 3021 3021 3019 3018 3016 3014 3012 3010 3007 3005 3004 3003 2999 2997 2996 2998 2997 2999 2998 3000 2999 2997 2994 2989 2985 2986 2986 2985 2990 2993 2995 2998 3001 3004
3035 3032 3029 3027 3026 3026 3024 3023 3021 3022 3020 3019 3017 3015 3012 3010 3008 3008 3005 3006 3004 3003 3001 2998 2996 2994 2994 2994 2995 2995 2992 2993 2991 2989 2982 2981 2981 2982 2980 2983 2986 2988 2991 2994 2996
3032 3029 3025 3023 3024 3022 3022 3020 3019 3018 3017 3015 3013 3010 3009 3006 3004 3004 3002 3003 3001 3000 2999 2997 2992 2990 2990 2991 2990 2990 2990 2992 2993 2985 2979 2981 2976 2975 2977 2978 2980 2983 2986 2988 2989
3026 3024 3021 3020 3018 3017 3017 3017 3015 3014 3013 3011 3009 3008 3005 3003 3002 2998 2998 2997 2995 2995 2994 2993 2990 2985 2984 2984 2982 2982 2984 2986 2986 2983 2979 2980 2976 2975 2972 2975 2975 2977 2978 2980 2982
3021 3020 3018 3016 3015 3013 3010 3010 3011 3010 3008 3007 3006 3004 3001 2998 2997 2993 2992 2992 2991 2991 2992 2990 2988 2988 2986 2985 2985 2979 2979 2980 2983 2981 2977 2974 2970 2971 2974 2973 2974 2973 2973 2973 2974
3020 3017 3015 3014 3012 3011 3009 3008 3006 3004 3003 3002 2999 2997 2995 2991 2990 2988 2986 2985 2985 2986 2986 2986 2981 2981 2978 2978 2977 2975 2972 2971 2972 2971 2970 2966 2964 2967 2968 2968 2968 2970 2970 2968 2968
3018 3015 3012 3010 3008 3007 3006 3004 3002 3000 2998 2994 2994 2992 2991 2988 2987 2983 2982 2981 2980 2980 2979 2978 2974 2974 2968 2970 2968 2964 2965 2965 2962 2961 2958 2958 2952 2962 2959 2959 2959 2960 2961 2963 2963
3014 3011 3008 3008 3005 3003 3002 3000 2997 2994 2991 2990 2987 2984 2984 2982 2980 2978 2976 2974 2974 2973 2972 2971 2969 2967 2958 2962 2960 2954 2955 2955 2953 2953 2952 2949 2950 2951 2951 2951 2952 2951 2952 2953 2955